COSMOS 2251 DEB, 34635

Orbit data source: Space-Track

COSMOS 2251 DEB, 34635 is space debris in LEO originally from a launch on Wed, 16 Jun 1993 UTC launched from the Plesetsk Missile And Space Complex (PKMTR). The debris from Iridium 33, an American commercial communications satellite, has been tracked extensively since its accidental collision with the defunct Russian satellite Cosmos 2251 in 2009. This event, occurring at high speed in low Earth orbit (LEO), generated thousands of pieces of space debris, significantly increasing the risk of further collisions. The Iridium 33 debris cloud has impacted space traffic management and orbital debris mitigation strategies, making it a subject of ongoing study in space situational awareness.

Loading next visibility...
Identifier
34635, 1993-036XG
Orbit
LEO
Country
Flag of CISCIS
Related business
Manufacturer
Unknown
Mission
Spacecraft
Bus & Motor
Unknown
Mass
Unknown
Launch date (UTC)
1993-06-16 (33 years ago)
Launch vehicle
Unknown
Launch site
Plesetsk Missile And Space Complex (PKMTR)
Object type
Payload
Rocket body
Debris
Shape & HBR
Unknown shape, 0.1 m
Radar Cross Section
Medium (>0.1 m² and <1 m²)

Expand to show TLE details & history
Last TLE update: 10 hours ago

TLE from 10 hours ago
0 COSMOS 2251 DEB
1 34635U 93036XG  26177.84239157  .00005665  00000-0  92504-3 0  9999
2 34635  74.0444  50.8782 0029544  71.6613  53.2380 14.70835029761008
Epoch: 2026-06-26T20:13Z
TLE epoch observation values (Epoch: 2026-06-26T20:13:02.631Z)
Latitude
51.91837°
Longitude
-8.62612°
Altitude
654.061 km
Speed
7.542 km/s
True Right ascension
13h 58m 23s
True Declination
51° 44' 56"
Sunlit
Object was in daylight at epoch
Visualization orbit readout
Latitude
Unknown
Longitude
Unknown
Altitude
Unknown
Speed
Unknown
Apparent Right ascension
Unknown
Apparent Declination
Unknown
Sunlit
N/A
Visualization observer readout
Local Sidereal Time
17:10:17
Azimuth
Unknown
Elevation
Unknown
Doppler factor
Unknown
Orbital elements
Apogee altitude
676.77 km
Perigee altitude
635.207 km
Semi-major axis
7,034.125 km
Eccentricity
0.00295
Inclination
74.0444°
RAAN
50.8782°
Arg. of periapsis
71.6613°
True anomaly
53.50982°
Mean anomaly
53.238°
Eccentric anomaly
53.37385°
Mean motion
3.67898 °/min
Orbital period
97.85 mins
BSTAR
0.00092504

Documentation

Showing up to 5 results
|